Time,TemperatureF,DewpointF,PressureIn,WindDirection,WindDirectionDegrees,WindSpeedMPH,WindSpeedGustMPH,Humidity,HourlyPrecipIn,Conditions,Clouds,dailyrainin,SoftwareType,DateUTC
2013-01-28 00:01:00,52.3,42.5,30.27,SE,144,0.0,2.0,69,0.00,,SKC,0.00,VWS V14.01,2013-01-28 06:01:00,
2013-01-28 00:06:00,52.3,42.5,30.27,ENE,68,0.0,2.0,69,0.00,,SKC,0.00,VWS V14.01,2013-01-28 06:06:00,
2013-01-28 00:11:00,52.4,42.2,30.27,ENE,76,2.0,2.0,68,0.00,,SKC,0.00,VWS V14.01,2013-01-28 06:11:00,
2013-01-28 00:16:00,52.4,42.2,30.27,East,95,0.0,0.0,68,0.00,,SKC,0.00,VWS V14.01,2013-01-28 06:16:00,
2013-01-28 00:21:00,52.4,42.2,30.27,ESE,114,0.0,1.0,68,0.00,,SKC,0.00,VWS V14.01,2013-01-28 06:21:00,
2013-01-28 00:26:00,52.3,42.1,30.27,ESE,114,0.0,2.0,68,0.00,,SKC,0.00,VWS V14.01,2013-01-28 06:26:00,
2013-01-28 00:31:00,52.2,42.0,30.27,East,92,3.0,5.0,68,0.00,,SKC,0.00,VWS V14.01,2013-01-28 06:31:00,
2013-01-28 00:36:00,52.2,42.0,30.27,East,93,5.0,5.0,68,0.00,,SKC,0.00,VWS V14.01,2013-01-28 06:36:00,
2013-01-28 00:42:00,52.2,42.0,30.27,SSE,155,0.0,1.0,68,0.00,,SKC,0.00,VWS V14.01,2013-01-28 06:42:00,
2013-01-28 00:47:00,52.1,41.9,30.26,East,86,4.0,6.0,68,0.00,,SKC,0.00,VWS V14.01,2013-01-28 06:47:00,
2013-01-28 00:52:00,52.1,41.9,30.26,South,172,0.0,3.0,68,0.00,,SKC,0.00,VWS V14.01,2013-01-28 06:52:00,
2013-01-28 00:57:00,51.9,41.7,30.26,East,100,0.0,3.0,68,0.00,,SKC,0.00,VWS V14.01,2013-01-28 06:57:00,
2013-01-28 01:02:00,51.8,41.6,30.26,East,95,0.0,2.0,68,0.00,,SKC,0.00,VWS V14.01,2013-01-28 07:02:00,
2013-01-28 01:07:00,51.7,41.5,30.26,ESE,103,1.0,2.0,68,0.00,,SKC,0.00,VWS V14.01,2013-01-28 07:07:00,
2013-01-28 01:12:00,51.8,41.6,30.26,ENE,61,2.0,4.0,68,0.00,,SKC,0.00,VWS V14.01,2013-01-28 07:12:00,
2013-01-28 01:17:00,51.8,41.6,30.26,WSW,242,2.0,3.0,68,0.00,,SKC,0.00,VWS V14.01,2013-01-28 07:17:00,
2013-01-28 01:22:00,51.8,41.6,30.26,SE,142,0.0,1.0,68,0.00,,SKC,0.00,VWS V14.01,2013-01-28 07:22:00,
2013-01-28 01:27:00,51.9,41.7,30.26,ESE,121,0.0,0.0,68,0.00,,SKC,0.00,VWS V14.01,2013-01-28 07:27:00,
2013-01-28 01:32:00,51.7,41.5,30.26,ESE,118,0.0,1.0,68,0.00,,SKC,0.00,VWS V14.01,2013-01-28 07:32:00,
2013-01-28 01:37:00,51.5,41.3,30.25,East,101,2.0,2.0,68,0.00,,SKC,0.00,VWS V14.01,2013-01-28 07:37:00,
2013-01-28 01:42:00,51.5,41.3,30.25,ENE,75,0.0,2.0,68,0.00,,SKC,0.00,VWS V14.01,2013-01-28 07:42:00,
2013-01-28 01:47:00,51.4,41.2,30.25,ENE,68,3.0,3.0,68,0.00,,SKC,0.00,VWS V14.01,2013-01-28 07:47:00,
2013-01-28 01:53:00,51.3,41.5,30.26,East,94,1.0,5.0,69,0.00,,SKC,0.00,VWS V14.01,2013-01-28 07:53:00,
2013-01-28 01:58:00,51.3,41.5,30.25,SE,142,2.0,2.0,69,0.00,,SKC,0.00,VWS V14.01,2013-01-28 07:58:00,
2013-01-28 02:03:00,51.2,41.4,30.25,East,85,7.0,7.0,69,0.00,,SKC,0.00,VWS V14.01,2013-01-28 08:03:00,
2013-01-28 02:08:00,51.2,41.4,30.25,ENE,63,0.0,1.0,69,0.00,,SKC,0.00,VWS V14.01,2013-01-28 08:08:00,
2013-01-28 02:13:00,51.2,41.4,30.25,East,96,0.0,1.0,69,0.00,,SKC,0.00,VWS V14.01,2013-01-28 08:13:00,
2013-01-28 02:18:00,51.0,41.2,30.26,East,96,0.0,0.0,69,0.00,,SKC,0.00,VWS V14.01,2013-01-28 08:18:00,
2013-01-28 02:23:00,50.8,41.4,30.25,East,96,0.0,0.0,70,0.00,,SKC,0.00,VWS V14.01,2013-01-28 08:23:00,
2013-01-28 02:28:00,50.6,41.2,30.26,ESE,108,0.0,0.0,70,0.00,,SKC,0.00,VWS V14.01,2013-01-28 08:28:00,
2013-01-28 02:34:00,50.5,41.5,30.25,East,84,0.0,0.0,71,0.00,,SKC,0.00,VWS V14.01,2013-01-28 08:34:00,
2013-01-28 02:39:00,50.3,41.3,30.26,SE,124,0.0,0.0,71,0.00,,SKC,0.00,VWS V14.01,2013-01-28 08:39:00,
2013-01-28 02:44:00,50.3,41.3,30.25,ESE,117,0.0,3.0,71,0.00,,SKC,0.00,VWS V14.01,2013-01-28 08:44:00,
2013-01-28 02:49:00,50.3,41.6,30.25,ESE,103,1.0,3.0,72,0.00,,SKC,0.00,VWS V14.01,2013-01-28 08:49:00,
2013-01-28 02:54:00,50.2,41.5,30.25,ESE,113,0.0,0.0,72,0.00,,SKC,0.00,VWS V14.01,2013-01-28 08:54:00,
2013-01-28 02:59:00,50.2,41.5,30.25,ESE,119,0.0,2.0,72,0.00,,SKC,0.00,VWS V14.01,2013-01-28 08:59:00,
2013-01-28 03:04:00,50.4,41.7,30.25,East,96,1.0,1.0,72,0.00,,SKC,0.00,VWS V14.01,2013-01-28 09:04:00,
2013-01-28 03:09:00,50.3,41.6,30.25,SE,130,0.0,0.0,72,0.00,,SKC,0.00,VWS V14.01,2013-01-28 09:09:00,
2013-01-28 03:14:00,50.3,41.6,30.25,East,96,1.0,1.0,72,0.00,,SKC,0.00,VWS V14.01,2013-01-28 09:14:00,
2013-01-28 03:19:00,50.3,41.6,30.25,ESE,105,0.0,0.0,72,0.00,,SKC,0.00,VWS V14.01,2013-01-28 09:19:00,
2013-01-28 03:24:00,50.3,41.6,30.25,East,84,0.0,0.0,72,0.00,,SKC,0.00,VWS V14.01,2013-01-28 09:24:00,
2013-01-28 03:29:00,50.1,41.8,30.25,ESE,115,0.0,0.0,73,0.00,,SKC,0.00,VWS V14.01,2013-01-28 09:29:00,
2013-01-28 03:34:00,50.1,41.8,30.25,ESE,111,4.0,4.0,73,0.00,,SKC,0.00,VWS V14.01,2013-01-28 09:34:00,
2013-01-28 03:39:00,50.2,41.9,30.25,East,83,0.0,0.0,73,0.00,,SKC,0.00,VWS V14.01,2013-01-28 09:39:00,
2013-01-28 03:44:00,50.2,41.9,30.25,ESE,113,2.0,3.0,73,0.00,,SKC,0.00,VWS V14.01,2013-01-28 09:44:00,
2013-01-28 03:49:00,50.2,41.9,30.25,South,180,0.0,0.0,73,0.00,,SKC,0.00,VWS V14.01,2013-01-28 09:49:00,
2013-01-28 03:54:00,50.1,41.8,30.25,WSW,241,0.0,0.0,73,0.00,,SKC,0.00,VWS V14.01,2013-01-28 09:54:00,
2013-01-28 03:59:00,50.1,41.8,30.25,ESE,116,0.0,0.0,73,0.00,,SKC,0.00,VWS V14.01,2013-01-28 09:59:00,
2013-01-28 04:04:00,49.9,41.6,30.25,ESE,104,0.0,1.0,73,0.00,,SKC,0.00,VWS V14.01,2013-01-28 10:04:00,
2013-01-28 04:09:00,49.8,41.9,30.25,ENE,76,0.0,0.0,74,0.00,,SKC,0.00,VWS V14.01,2013-01-28 10:09:00,
2013-01-28 04:14:00,49.7,41.8,30.25,ESE,103,0.0,0.0,74,0.00,,SKC,0.00,VWS V14.01,2013-01-28 10:14:00,
2013-01-28 04:19:00,49.7,41.8,30.25,ESE,105,1.0,3.0,74,0.00,,SKC,0.00,VWS V14.01,2013-01-28 10:19:00,
2013-01-28 04:24:00,49.6,41.7,30.25,East,88,0.0,0.0,74,0.00,,SKC,0.00,VWS V14.01,2013-01-28 10:24:00,
2013-01-28 04:29:00,49.6,42.0,30.25,ESE,117,0.0,0.0,75,0.00,,SKC,0.00,VWS V14.01,2013-01-28 10:29:00,
2013-01-28 04:34:00,49.5,41.9,30.26,SSE,149,2.0,3.0,75,0.00,,SKC,0.00,VWS V14.01,2013-01-28 10:34:00,
2013-01-28 04:39:00,49.4,41.8,30.25,SSW,196,2.0,2.0,75,0.00,,SKC,0.00,VWS V14.01,2013-01-28 10:39:00,
2013-01-28 04:44:00,49.4,41.8,30.25,East,90,0.0,3.0,75,0.00,,SKC,0.00,VWS V14.01,2013-01-28 10:44:00,
2013-01-28 04:49:00,49.3,42.1,30.25,ESE,106,2.0,3.0,76,0.00,,SKC,0.00,VWS V14.01,2013-01-28 10:49:00,
2013-01-28 04:54:00,49.3,42.1,30.26,East,99,0.0,1.0,76,0.00,,SKC,0.00,VWS V14.01,2013-01-28 10:54:00,
2013-01-28 04:59:00,49.3,42.1,30.26,East,87,2.0,2.0,76,0.00,,SKC,0.00,VWS V14.01,2013-01-28 10:59:00,
2013-01-28 05:05:00,49.2,42.0,30.26,WSW,240,0.0,0.0,76,0.00,,SKC,0.00,VWS V14.01,2013-01-28 11:05:00,
2013-01-28 05:10:00,49.2,42.0,30.26,East,96,5.0,5.0,76,0.00,,SKC,0.00,VWS V14.01,2013-01-28 11:10:00,
2013-01-28 05:15:00,49.2,42.0,30.25,ESE,107,0.0,0.0,76,0.00,,SKC,0.00,VWS V14.01,2013-01-28 11:15:00,
2013-01-28 05:20:00,49.2,42.0,30.26,ESE,106,0.0,3.0,76,0.00,,SKC,0.00,VWS V14.01,2013-01-28 11:20:00,
2013-01-28 05:25:00,49.2,42.3,30.26,ENE,71,0.0,0.0,77,0.00,,SKC,0.00,VWS V14.01,2013-01-28 11:25:00,
2013-01-28 05:30:00,49.2,42.3,30.26,East,92,0.0,4.0,77,0.00,,SKC,0.00,VWS V14.01,2013-01-28 11:30:00,
2013-01-28 05:35:00,49.1,42.2,30.26,ESE,121,0.0,0.0,77,0.00,,SKC,0.00,VWS V14.01,2013-01-28 11:35:00,
2013-01-28 05:40:00,49.1,42.5,30.26,South,178,0.0,0.0,78,0.00,,SKC,0.00,VWS V14.01,2013-01-28 11:40:00,
2013-01-28 05:45:00,49.0,42.5,30.26,East,90,1.0,2.0,78,0.00,,SKC,0.00,VWS V14.01,2013-01-28 11:45:00,
2013-01-28 05:51:00,49.0,42.5,30.27,East,98,0.0,2.0,78,0.00,,SKC,0.00,VWS V14.01,2013-01-28 11:51:00,
2013-01-28 05:56:00,48.9,42.7,30.27,ESE,115,0.0,4.0,79,0.00,,SKC,0.00,VWS V14.01,2013-01-28 11:56:00,
2013-01-28 06:01:00,49.0,42.8,30.26,East,80,0.0,2.0,79,0.00,,SKC,0.00,VWS V14.01,2013-01-28 12:01:00,
2013-01-28 06:06:00,49.0,42.8,30.26,East,93,0.0,3.0,79,0.00,,SKC,0.00,VWS V14.01,2013-01-28 12:06:00,
2013-01-28 06:11:00,49.0,42.8,30.27,South,170,0.0,0.0,79,0.00,,SKC,0.00,VWS V14.01,2013-01-28 12:11:00,
2013-01-28 06:16:00,48.9,43.0,30.27,East,84,2.0,3.0,80,0.00,,SKC,0.00,VWS V14.01,2013-01-28 12:16:00,
2013-01-28 06:21:00,49.0,43.1,30.27,SSE,149,0.0,0.0,80,0.00,,SKC,0.00,VWS V14.01,2013-01-28 12:21:00,
2013-01-28 06:26:00,49.1,43.5,30.26,East,95,3.0,3.0,81,0.00,,SKC,0.00,VWS V14.01,2013-01-28 12:26:00,
2013-01-28 06:31:00,49.2,44.0,30.27,South,176,0.0,2.0,82,0.00,,SKC,0.00,VWS V14.01,2013-01-28 12:31:00,
2013-01-28 06:36:00,49.4,44.1,30.27,East,90,2.0,2.0,82,0.00,,SKC,0.00,VWS V14.01,2013-01-28 12:36:00,
2013-01-28 06:41:00,49.3,44.0,30.27,East,97,2.0,2.0,82,0.00,,SKC,0.00,VWS V14.01,2013-01-28 12:41:00,
2013-01-28 06:46:00,49.2,44.0,30.26,SSW,197,0.0,2.0,82,0.00,,SKC,0.00,VWS V14.01,2013-01-28 12:46:00,
2013-01-28 06:51:00,49.1,43.8,30.27,SE,135,0.0,2.0,82,0.00,,SKC,0.00,VWS V14.01,2013-01-28 12:51:00,
2013-01-28 06:56:00,49.1,44.2,30.27,East,92,0.0,0.0,83,0.00,,SKC,0.00,VWS V14.01,2013-01-28 12:56:00,
2013-01-28 07:01:00,49.0,44.1,30.27,WSW,255,1.0,3.0,83,0.00,,SKC,0.00,VWS V14.01,2013-01-28 13:01:00,
2013-01-28 07:06:00,49.0,44.1,30.27,ESE,103,3.0,3.0,83,0.00,,SKC,0.00,VWS V14.01,2013-01-28 13:06:00,
2013-01-28 07:11:00,49.0,44.1,30.27,SSE,150,0.0,0.0,83,0.00,,SKC,0.00,VWS V14.01,2013-01-28 13:11:00,
2013-01-28 07:16:00,49.0,44.1,30.27,ESE,109,4.0,4.0,83,0.00,,SKC,0.00,VWS V14.01,2013-01-28 13:16:00,
2013-01-28 07:21:00,49.2,44.6,30.27,SSW,200,0.0,0.0,84,0.00,,SKC,0.00,VWS V14.01,2013-01-28 13:21:00,
2013-01-28 07:26:00,49.5,45.2,30.27,ENE,70,4.0,4.0,85,0.00,,SKC,0.00,VWS V14.01,2013-01-28 13:26:00,
2013-01-28 07:31:00,49.9,45.6,30.27,South,169,1.0,2.0,85,0.00,,SKC,0.00,VWS V14.01,2013-01-28 13:31:00,
2013-01-28 07:36:00,50.2,45.9,30.28,ESE,103,0.0,1.0,85,0.00,,SKC,0.00,VWS V14.01,2013-01-28 13:36:00,
2013-01-28 07:41:00,50.5,46.2,30.28,SSE,149,0.0,0.0,85,0.00,,SKC,0.00,VWS V14.01,2013-01-28 13:41:00,
2013-01-28 07:46:00,50.8,46.5,30.28,WSW,250,0.0,1.0,85,0.00,,SKC,0.00,VWS V14.01,2013-01-28 13:46:00,
2013-01-28 07:51:00,51.1,46.8,30.28,WSW,240,0.0,0.0,85,0.00,,SKC,0.00,VWS V14.01,2013-01-28 13:51:00,
2013-01-28 07:56:00,51.4,47.0,30.28,SW,220,0.0,1.0,85,0.00,,SKC,0.00,VWS V14.01,2013-01-28 13:56:00,
2013-01-28 08:02:00,51.7,47.3,30.28,SE,134,0.0,1.0,85,0.00,,SKC,0.00,VWS V14.01,2013-01-28 14:02:00,
2013-01-28 08:07:00,52.0,47.6,30.28,SSW,196,0.0,0.0,85,0.00,,SKC,0.00,VWS V14.01,2013-01-28 14:07:00,
2013-01-28 08:12:00,52.2,47.8,30.28,SE,138,0.0,1.0,85,0.00,,SKC,0.00,VWS V14.01,2013-01-28 14:12:00,
2013-01-28 08:17:00,52.4,48.3,30.28,NW,319,0.0,1.0,86,0.00,,SKC,0.00,VWS V14.01,2013-01-28 14:17:00,
2013-01-28 08:22:00,52.5,48.4,30.28,SSE,153,3.0,3.0,86,0.00,,SKC,0.00,VWS V14.01,2013-01-28 14:22:00,
2013-01-28 08:27:00,52.6,48.5,30.28,South,186,3.0,4.0,86,0.00,,SKC,0.00,VWS V14.01,2013-01-28 14:27:00,
2013-01-28 08:32:00,52.8,48.7,30.28,ENE,66,0.0,4.0,86,0.00,,SKC,0.00,VWS V14.01,2013-01-28 14:32:00,
2013-01-28 08:37:00,52.9,48.8,30.28,SSE,153,0.0,0.0,86,0.00,,SKC,0.00,VWS V14.01,2013-01-28 14:37:00,
2013-01-28 08:42:00,53.0,48.9,30.28,East,94,0.0,2.0,86,0.00,,SKC,0.00,VWS V14.01,2013-01-28 14:42:00,
2013-01-28 08:47:00,53.3,49.2,30.28,SSW,205,4.0,4.0,86,0.00,,SKC,0.00,VWS V14.01,2013-01-28 14:47:00,
2013-01-28 08:52:00,53.5,49.4,30.28,East,95,6.0,7.0,86,0.00,,SKC,0.00,VWS V14.01,2013-01-28 14:52:00,
2013-01-28 08:57:00,53.6,49.5,30.28,SE,142,0.0,0.0,86,0.00,,SKC,0.00,VWS V14.01,2013-01-28 14:57:00,
2013-01-28 09:02:00,53.9,49.5,30.28,South,182,2.0,4.0,85,0.00,,SKC,0.00,VWS V14.01,2013-01-28 15:02:00,
2013-01-28 09:07:00,54.1,49.7,30.28,SSE,149,1.0,1.0,85,0.00,,SKC,0.00,VWS V14.01,2013-01-28 15:07:00,
2013-01-28 09:12:00,54.4,50.0,30.28,SW,217,1.0,1.0,85,0.00,,SKC,0.00,VWS V14.01,2013-01-28 15:12:00,
2013-01-28 09:17:00,54.6,50.2,30.28,SSW,194,1.0,2.0,85,0.00,,SKC,0.00,VWS V14.01,2013-01-28 15:17:00,
2013-01-28 09:22:00,54.9,50.5,30.28,SE,146,0.0,3.0,85,0.00,,SKC,0.00,VWS V14.01,2013-01-28 15:22:00,
2013-01-28 09:27:00,55.1,50.4,30.29,SSE,157,1.0,6.0,84,0.00,,SKC,0.00,VWS V14.01,2013-01-28 15:27:00,
2013-01-28 09:32:00,55.3,50.6,30.29,ESE,116,1.0,5.0,84,0.00,,SKC,0.00,VWS V14.01,2013-01-28 15:32:00,
2013-01-28 09:37:00,55.5,50.8,30.29,SE,142,5.0,5.0,84,0.00,,SKC,0.00,VWS V14.01,2013-01-28 15:37:00,
2013-01-28 09:42:00,55.6,51.2,30.29,South,191,0.0,2.0,85,0.00,,SKC,0.00,VWS V14.01,2013-01-28 15:42:00,
2013-01-28 09:47:00,55.7,51.3,30.29,ESE,105,1.0,3.0,85,0.00,,SKC,0.00,VWS V14.01,2013-01-28 15:47:00,
2013-01-28 09:52:00,55.8,51.0,30.29,SSW,198,0.0,2.0,84,0.00,,SKC,0.00,VWS V14.01,2013-01-28 15:52:00,
2013-01-28 09:57:00,56.1,51.3,30.29,South,188,0.0,4.0,84,0.00,,SKC,0.00,VWS V14.01,2013-01-28 15:57:00,
2013-01-28 10:02:00,56.4,51.6,30.29,SSE,165,4.0,5.0,84,0.00,,SKC,0.00,VWS V14.01,2013-01-28 16:02:00,
2013-01-28 10:07:00,56.6,51.5,30.29,South,188,0.0,0.0,83,0.00,,SKC,0.00,VWS V14.01,2013-01-28 16:07:00,
2013-01-28 10:12:00,56.8,52.0,30.29,East,97,0.0,0.0,84,0.00,,SKC,0.00,VWS V14.01,2013-01-28 16:12:00,
2013-01-28 10:17:00,57.0,51.9,30.29,South,187,2.0,4.0,83,0.00,,SKC,0.00,VWS V14.01,2013-01-28 16:17:00,
2013-01-28 10:22:00,57.2,52.1,30.29,ESE,108,0.0,0.0,83,0.00,,SKC,0.00,VWS V14.01,2013-01-28 16:22:00,
2013-01-28 10:27:00,57.5,52.4,30.29,ESE,113,3.0,6.0,83,0.00,,SKC,0.00,VWS V14.01,2013-01-28 16:27:00,
2013-01-28 10:32:00,57.5,52.4,30.28,SSE,163,0.0,1.0,83,0.00,,SKC,0.00,VWS V14.01,2013-01-28 16:32:00,
2013-01-28 10:37:00,57.9,52.8,30.28,SE,129,1.0,1.0,83,0.00,,SKC,0.00,VWS V14.01,2013-01-28 16:37:00,
2013-01-28 10:42:00,58.5,53.0,30.28,South,184,4.0,6.0,82,0.00,,SKC,0.00,VWS V14.01,2013-01-28 16:42:00,
2013-01-28 10:48:00,59.0,53.8,30.27,SE,142,1.0,4.0,83,0.00,,SKC,0.00,VWS V14.01,2013-01-28 16:48:00,
2013-01-28 10:53:00,59.2,53.4,30.28,ESE,109,1.0,4.0,81,0.00,,SKC,0.00,VWS V14.01,2013-01-28 16:53:00,
2013-01-28 10:58:00,59.6,53.8,30.27,SSW,194,0.0,4.0,81,0.00,,SKC,0.00,VWS V14.01,2013-01-28 16:58:00,
2013-01-28 11:03:00,59.9,54.1,30.27,East,80,3.0,4.0,81,0.00,,SKC,0.00,VWS V14.01,2013-01-28 17:03:00,
2013-01-28 11:08:00,60.0,54.2,30.27,SSW,198,0.0,1.0,81,0.00,,SKC,0.00,VWS V14.01,2013-01-28 17:08:00,
2013-01-28 11:13:00,60.1,53.9,30.27,South,179,2.0,2.0,80,0.00,,SKC,0.00,VWS V14.01,2013-01-28 17:13:00,
2013-01-28 11:18:00,60.1,54.3,30.27,SSE,164,3.0,3.0,81,0.00,,SKC,0.00,VWS V14.01,2013-01-28 17:18:00,
2013-01-28 11:23:00,60.1,54.3,30.27,SSE,156,2.0,4.0,81,0.00,,SKC,0.00,VWS V14.01,2013-01-28 17:23:00,
2013-01-28 11:29:00,59.9,54.1,30.27,SSW,196,1.0,5.0,81,0.00,,SKC,0.00,VWS V14.01,2013-01-28 17:29:00,
2013-01-28 11:33:00,60.0,54.5,30.26,SSW,199,7.0,7.0,82,0.00,,SKC,0.00,VWS V14.01,2013-01-28 17:33:00,
2013-01-28 11:38:00,60.0,54.2,30.26,SSW,209,7.0,10.0,81,0.00,,SKC,0.00,VWS V14.01,2013-01-28 17:38:00,
2013-01-28 11:43:00,59.9,54.1,30.26,South,191,0.0,1.0,81,0.00,,SKC,0.00,VWS V14.01,2013-01-28 17:43:00,
2013-01-28 11:48:00,60.2,54.4,30.26,SW,218,2.0,5.0,81,0.00,,SKC,0.00,VWS V14.01,2013-01-28 17:48:00,
2013-01-28 11:54:00,60.5,54.3,30.25,SW,223,2.0,3.0,80,0.00,,SKC,0.00,VWS V14.01,2013-01-28 17:54:00,
2013-01-28 11:59:00,60.7,54.5,30.25,South,190,1.0,4.0,80,0.00,,SKC,0.00,VWS V14.01,2013-01-28 17:59:00,
2013-01-28 12:04:00,61.5,55.3,30.25,South,187,4.0,5.0,80,0.00,,SKC,0.00,VWS V14.01,2013-01-28 18:04:00,
2013-01-28 12:09:00,62.4,55.5,30.24,South,175,6.0,11.0,78,0.00,,SKC,0.00,VWS V14.01,2013-01-28 18:09:00,
2013-01-28 12:14:00,62.5,55.6,30.24,SSW,200,0.0,5.0,78,0.00,,SKC,0.00,VWS V14.01,2013-01-28 18:14:00,
2013-01-28 12:19:00,62.9,55.6,30.23,SSW,204,3.0,3.0,77,0.00,,SKC,0.00,VWS V14.01,2013-01-28 18:19:00,
2013-01-28 12:24:00,62.9,55.2,30.23,SW,223,3.0,3.0,76,0.00,,SKC,0.00,VWS V14.01,2013-01-28 18:24:00,
2013-01-28 12:29:00,63.4,55.7,30.23,ESE,107,1.0,1.0,76,0.00,,SKC,0.00,VWS V14.01,2013-01-28 18:29:00,
2013-01-28 12:34:00,63.7,56.0,30.22,SSW,195,3.0,3.0,76,0.00,,SKC,0.00,VWS V14.01,2013-01-28 18:34:00,
2013-01-28 12:39:00,64.1,55.7,30.22,SE,133,1.0,9.0,74,0.00,,SKC,0.00,VWS V14.01,2013-01-28 18:39:00,
2013-01-28 12:45:00,63.9,55.5,30.22,SW,227,4.0,6.0,74,0.00,,SKC,0.00,VWS V14.01,2013-01-28 18:45:00,
2013-01-28 12:50:00,63.4,55.3,30.22,SSW,192,4.0,8.0,75,0.00,,SKC,0.00,VWS V14.01,2013-01-28 18:50:00,
2013-01-28 12:55:00,63.3,55.6,30.22,SW,233,4.0,4.0,76,0.00,,SKC,0.00,VWS V14.01,2013-01-28 18:55:00,
2013-01-28 12:59:00,63.7,56.0,30.21,WSW,244,5.0,9.0,76,0.00,,SKC,0.00,VWS V14.01,2013-01-28 18:59:00,
2013-01-28 13:05:00,64.0,55.9,30.21,South,178,1.0,5.0,75,0.00,,SKC,0.00,VWS V14.01,2013-01-28 19:05:00,
2013-01-28 13:10:00,64.1,55.7,30.21,South,182,3.0,9.0,74,0.00,,SKC,0.00,VWS V14.01,2013-01-28 19:10:00,
2013-01-28 13:15:00,64.6,56.1,30.20,West,265,4.0,6.0,74,0.00,,SKC,0.00,VWS V14.01,2013-01-28 19:15:00,
2013-01-28 13:20:00,64.9,56.0,30.20,SSW,213,0.0,4.0,73,0.00,,SKC,0.00,VWS V14.01,2013-01-28 19:20:00,
2013-01-28 13:25:00,65.4,56.2,30.20,SW,219,9.0,9.0,72,0.00,,SKC,0.00,VWS V14.01,2013-01-28 19:25:00,
2013-01-28 13:30:00,65.9,55.8,30.20,WSW,257,8.0,8.0,70,0.00,,SKC,0.00,VWS V14.01,2013-01-28 19:30:00,
2013-01-28 13:35:00,66.1,56.0,30.20,SSW,213,3.0,7.0,70,0.00,,SKC,0.00,VWS V14.01,2013-01-28 19:35:00,
2013-01-28 13:40:00,66.2,56.1,30.19,SSW,213,1.0,10.0,70,0.00,,SKC,0.00,VWS V14.01,2013-01-28 19:40:00,
2013-01-28 13:45:00,66.3,56.2,30.19,SSE,161,3.0,9.0,70,0.00,,SKC,0.00,VWS V14.01,2013-01-28 19:45:00,
2013-01-28 13:50:00,65.8,55.8,30.19,WSW,250,2.0,3.0,70,0.00,,SKC,0.00,VWS V14.01,2013-01-28 19:50:00,
2013-01-28 13:55:00,65.6,55.6,30.19,South,186,0.0,0.0,70,0.00,,SKC,0.00,VWS V14.01,2013-01-28 19:55:00,
2013-01-28 14:00:00,66.0,56.3,30.19,South,183,0.0,0.0,71,0.00,,SKC,0.00,VWS V14.01,2013-01-28 20:00:00,
2013-01-28 14:05:00,66.7,56.2,30.19,South,186,0.0,1.0,69,0.00,,SKC,0.00,VWS V14.01,2013-01-28 20:05:00,
2013-01-28 14:10:00,66.2,55.7,30.19,SSW,192,6.0,6.0,69,0.00,,SKC,0.00,VWS V14.01,2013-01-28 20:10:00,
2013-01-28 14:15:00,65.9,55.8,30.19,SSW,199,7.0,7.0,70,0.00,,SKC,0.00,VWS V14.01,2013-01-28 20:15:00,
2013-01-28 14:21:00,66.3,56.2,30.18,South,191,12.0,12.0,70,0.00,,SKC,0.00,VWS V14.01,2013-01-28 20:21:00,
2013-01-28 14:26:00,66.7,55.8,30.18,South,187,1.0,4.0,68,0.00,,SKC,0.00,VWS V14.01,2013-01-28 20:26:00,
2013-01-28 14:31:00,66.9,56.0,30.18,SSE,157,2.0,6.0,68,0.00,,SKC,0.00,VWS V14.01,2013-01-28 20:31:00,
2013-01-28 14:36:00,66.9,56.0,30.18,SSE,167,3.0,9.0,68,0.00,,SKC,0.00,VWS V14.01,2013-01-28 20:36:00,
2013-01-28 14:41:00,67.1,56.6,30.18,SSW,202,3.0,6.0,69,0.00,,SKC,0.00,VWS V14.01,2013-01-28 20:41:00,
2013-01-28 14:46:00,67.2,56.3,30.18,South,171,0.0,1.0,68,0.00,,SKC,0.00,VWS V14.01,2013-01-28 20:46:00,
2013-01-28 14:51:00,67.6,56.7,30.18,ESE,106,0.0,2.0,68,0.00,,SKC,0.00,VWS V14.01,2013-01-28 20:51:00,
2013-01-28 14:56:00,68.3,56.9,30.17,ESE,122,2.0,3.0,67,0.00,,SKC,0.00,VWS V14.01,2013-01-28 20:56:00,
2013-01-28 15:01:00,68.3,56.5,30.17,SSW,196,4.0,4.0,66,0.00,,SKC,0.00,VWS V14.01,2013-01-28 21:01:00,
2013-01-28 15:06:00,68.4,56.6,30.17,SSW,204,1.0,4.0,66,0.00,,SKC,0.00,VWS V14.01,2013-01-28 21:06:00,
2013-01-28 15:11:00,68.4,56.6,30.17,SSE,160,0.0,3.0,66,0.00,,SKC,0.00,VWS V14.01,2013-01-28 21:11:00,
2013-01-28 15:16:00,68.7,56.9,30.17,SSE,155,2.0,3.0,66,0.00,,SKC,0.00,VWS V14.01,2013-01-28 21:16:00,
2013-01-28 15:21:00,68.8,56.6,30.17,SSW,200,3.0,8.0,65,0.00,,SKC,0.00,VWS V14.01,2013-01-28 21:21:00,
2013-01-28 15:26:00,68.4,56.2,30.17,SSW,202,4.0,5.0,65,0.00,,SKC,0.00,VWS V14.01,2013-01-28 21:26:00,
2013-01-28 15:31:00,67.8,56.0,30.17,SW,226,2.0,4.0,66,0.00,,SKC,0.00,VWS V14.01,2013-01-28 21:31:00,
2013-01-28 15:36:00,67.6,55.0,30.17,SW,219,8.0,8.0,64,0.00,,SKC,0.00,VWS V14.01,2013-01-28 21:36:00,
2013-01-28 15:41:00,67.6,55.4,30.17,WSW,242,3.0,3.0,65,0.00,,SKC,0.00,VWS V14.01,2013-01-28 21:41:00,
2013-01-28 15:46:00,67.5,55.8,30.17,SSW,194,5.0,5.0,66,0.00,,SKC,0.00,VWS V14.01,2013-01-28 21:46:00,
2013-01-28 15:51:00,67.3,55.6,30.17,South,186,6.0,6.0,66,0.00,,SKC,0.00,VWS V14.01,2013-01-28 21:51:00,
2013-01-28 15:56:00,67.2,55.5,30.17,South,186,5.0,7.0,66,0.00,,SKC,0.00,VWS V14.01,2013-01-28 21:56:00,
2013-01-28 16:01:00,67.2,55.5,30.17,SSW,209,0.0,0.0,66,0.00,,SKC,0.00,VWS V14.01,2013-01-28 22:01:00,
2013-01-28 16:06:00,67.5,55.3,30.17,South,173,0.0,1.0,65,0.00,,SKC,0.00,VWS V14.01,2013-01-28 22:06:00,
2013-01-28 16:11:00,67.6,55.8,30.17,SSW,195,0.0,2.0,66,0.00,,SKC,0.00,VWS V14.01,2013-01-28 22:11:00,
2013-01-28 16:17:00,67.2,55.5,30.17,SW,223,2.0,4.0,66,0.00,,SKC,0.00,VWS V14.01,2013-01-28 22:17:00,
2013-01-28 16:22:00,66.8,55.1,30.17,SW,215,1.0,3.0,66,0.00,,SKC,0.00,VWS V14.01,2013-01-28 22:22:00,
2013-01-28 16:27:00,66.4,55.1,30.17,SSW,207,4.0,6.0,67,0.00,,SKC,0.00,VWS V14.01,2013-01-28 22:27:00,
2013-01-28 16:32:00,66.1,55.2,30.17,SSW,203,1.0,4.0,68,0.00,,SKC,0.00,VWS V14.01,2013-01-28 22:32:00,
2013-01-28 16:37:00,66.0,55.2,30.17,SSW,203,5.0,6.0,68,0.00,,SKC,0.00,VWS V14.01,2013-01-28 22:37:00,
2013-01-28 16:42:00,65.8,55.0,30.17,SSW,207,0.0,4.0,68,0.00,,SKC,0.00,VWS V14.01,2013-01-28 22:42:00,
2013-01-28 16:47:00,65.5,55.1,30.17,SSW,207,0.0,0.0,69,0.00,,SKC,0.00,VWS V14.01,2013-01-28 22:47:00,
2013-01-28 16:52:00,65.3,54.9,30.17,SSW,206,3.0,4.0,69,0.00,,SKC,0.00,VWS V14.01,2013-01-28 22:52:00,
2013-01-28 16:57:00,65.0,55.0,30.17,SSW,207,0.0,1.0,70,0.00,,SKC,0.00,VWS V14.01,2013-01-28 22:57:00,
2013-01-28 17:02:00,64.7,55.1,30.17,SSW,206,0.0,0.0,71,0.00,,SKC,0.00,VWS V14.01,2013-01-28 23:02:00,
2013-01-28 17:07:00,64.4,54.8,30.18,SSW,207,0.0,1.0,71,0.00,,SKC,0.00,VWS V14.01,2013-01-28 23:07:00,
2013-01-28 17:12:00,63.9,54.7,30.17,SSW,206,0.0,0.0,72,0.00,,SKC,0.00,VWS V14.01,2013-01-28 23:12:00,
2013-01-28 17:17:00,63.2,54.4,30.17,SSW,206,0.0,0.0,73,0.00,,SKC,0.00,VWS V14.01,2013-01-28 23:17:00,
2013-01-28 17:22:00,62.7,54.3,30.18,SSW,206,0.0,0.0,74,0.00,,SKC,0.00,VWS V14.01,2013-01-28 23:22:00,
2013-01-28 17:27:00,62.1,54.1,30.18,SSW,207,0.0,0.0,75,0.00,,SKC,0.00,VWS V14.01,2013-01-28 23:27:00,
2013-01-28 17:32:00,61.1,53.8,30.18,SSW,207,0.0,0.0,77,0.00,,SKC,0.00,VWS V14.01,2013-01-28 23:32:00,
2013-01-28 17:37:00,60.2,53.3,30.18,SSW,206,0.0,0.0,78,0.00,,SKC,0.00,VWS V14.01,2013-01-28 23:37:00,
2013-01-28 17:42:00,59.5,53.0,30.18,SSW,207,0.0,0.0,79,0.00,,SKC,0.00,VWS V14.01,2013-01-28 23:42:00,
2013-01-28 17:47:00,59.0,53.2,30.18,SSW,206,0.0,0.0,81,0.00,,SKC,0.00,VWS V14.01,2013-01-28 23:47:00,
2013-01-28 17:52:00,58.9,53.4,30.18,SSW,207,0.0,0.0,82,0.00,,SKC,0.00,VWS V14.01,2013-01-28 23:52:00,
2013-01-28 17:57:00,58.6,53.5,30.18,SSW,207,0.0,0.0,83,0.00,,SKC,0.00,VWS V14.01,2013-01-28 23:57:00,
2013-01-28 18:02:00,58.4,53.6,30.18,SSW,206,0.0,0.0,84,0.00,,SKC,0.00,VWS V14.01,2013-01-29 00:02:00,
2013-01-28 18:07:00,58.4,53.9,30.18,SSW,207,0.0,0.0,85,0.00,,SKC,0.00,VWS V14.01,2013-01-29 00:07:00,
2013-01-28 18:13:00,58.7,54.2,30.18,SSW,206,0.0,0.0,85,0.00,,SKC,0.00,VWS V14.01,2013-01-29 00:13:00,
2013-01-28 18:18:00,58.9,54.4,30.18,SSW,206,0.0,0.0,85,0.00,,SKC,0.00,VWS V14.01,2013-01-29 00:18:00,
2013-01-28 18:23:00,58.9,54.4,30.18,SSW,207,0.0,0.0,85,0.00,,SKC,0.00,VWS V14.01,2013-01-29 00:23:00,
2013-01-28 18:28:00,58.6,54.1,30.18,SSW,207,0.0,0.0,85,0.00,,SKC,0.00,VWS V14.01,2013-01-29 00:28:00,
2013-01-28 18:33:00,58.4,53.9,30.18,SSW,207,0.0,0.0,85,0.00,,SKC,0.00,VWS V14.01,2013-01-29 00:33:00,
2013-01-28 18:38:00,58.3,54.1,30.18,SSW,207,0.0,0.0,86,0.00,,SKC,0.00,VWS V14.01,2013-01-29 00:38:00,
2013-01-28 18:43:00,58.1,53.9,30.18,SSW,206,1.0,3.0,86,0.00,,SKC,0.00,VWS V14.01,2013-01-29 00:43:00,
2013-01-28 18:48:00,58.0,53.8,30.18,SSW,207,0.0,0.0,86,0.00,,SKC,0.00,VWS V14.01,2013-01-29 00:48:00,
2013-01-28 18:53:00,57.8,53.7,30.18,SSW,207,0.0,0.0,86,0.00,,SKC,0.00,VWS V14.01,2013-01-29 00:53:00,
2013-01-28 18:58:00,57.7,53.9,30.18,SSW,206,0.0,1.0,87,0.00,,SKC,0.00,VWS V14.01,2013-01-29 00:58:00,
2013-01-28 19:03:00,57.7,53.9,30.18,ESE,105,6.0,6.0,87,0.00,,SKC,0.00,VWS V14.01,2013-01-29 01:03:00,
2013-01-28 19:08:00,57.7,53.9,30.18,ESE,117,0.0,0.0,87,0.00,,SKC,0.00,VWS V14.01,2013-01-29 01:08:00,
2013-01-28 19:13:00,57.6,53.8,30.18,ESE,117,0.0,0.0,87,0.00,,SKC,0.00,VWS V14.01,2013-01-29 01:13:00,
2013-01-28 19:18:00,57.4,53.6,30.18,ESE,117,0.0,0.0,87,0.00,,SKC,0.00,VWS V14.01,2013-01-29 01:18:00,
2013-01-28 19:23:00,57.2,53.7,30.18,ESE,117,0.0,0.0,88,0.00,,SKC,0.00,VWS V14.01,2013-01-29 01:23:00,
2013-01-28 19:28:00,57.0,53.5,30.17,ESE,117,0.0,2.0,88,0.00,,SKC,0.00,VWS V14.01,2013-01-29 01:28:00,
2013-01-28 19:33:00,56.9,53.4,30.17,ESE,117,0.0,0.0,88,0.00,,SKC,0.00,VWS V14.01,2013-01-29 01:33:00,
2013-01-28 19:38:00,56.8,53.3,30.17,ESE,117,0.0,0.0,88,0.00,,SKC,0.00,VWS V14.01,2013-01-29 01:38:00,
2013-01-28 19:43:00,56.7,53.2,30.17,ESE,117,0.0,0.0,88,0.00,,SKC,0.00,VWS V14.01,2013-01-29 01:43:00,
2013-01-28 19:48:00,56.6,53.4,30.17,ESE,117,0.0,0.0,89,0.00,,SKC,0.00,VWS V14.01,2013-01-29 01:48:00,
2013-01-28 19:53:00,56.4,53.2,30.17,ESE,117,0.0,0.0,89,0.00,,SKC,0.00,VWS V14.01,2013-01-29 01:53:00,
2013-01-28 19:58:00,56.2,53.0,30.17,ESE,117,0.0,0.0,89,0.00,,SKC,0.00,VWS V14.01,2013-01-29 01:58:00,
2013-01-28 20:03:00,56.1,52.9,30.17,ESE,117,0.0,0.0,89,0.00,,SKC,0.00,VWS V14.01,2013-01-29 02:03:00,
2013-01-28 20:08:00,55.9,53.0,30.17,ESE,117,0.0,0.0,90,0.00,,SKC,0.00,VWS V14.01,2013-01-29 02:08:00,
2013-01-28 20:13:00,55.8,52.9,30.17,ESE,117,0.0,0.0,90,0.00,,SKC,0.00,VWS V14.01,2013-01-29 02:13:00,
2013-01-28 20:18:00,55.6,52.7,30.17,ESE,117,0.0,0.0,90,0.00,,SKC,0.00,VWS V14.01,2013-01-29 02:18:00,
2013-01-28 20:23:00,55.5,52.6,30.17,ESE,117,0.0,1.0,90,0.00,,SKC,0.00,VWS V14.01,2013-01-29 02:23:00,
2013-01-28 20:28:00,55.5,52.9,30.17,ESE,117,0.0,0.0,91,0.00,,SKC,0.00,VWS V14.01,2013-01-29 02:28:00,
2013-01-28 20:33:00,55.7,53.1,30.17,ESE,117,0.0,0.0,91,0.00,,SKC,0.00,VWS V14.01,2013-01-29 02:33:00,
2013-01-28 20:38:00,55.7,53.1,30.17,ESE,117,0.0,0.0,91,0.00,,SKC,0.00,VWS V14.01,2013-01-29 02:38:00,
2013-01-28 20:43:00,55.6,52.7,30.17,ESE,117,0.0,0.0,90,0.00,,SKC,0.00,VWS V14.01,2013-01-29 02:43:00,
2013-01-28 20:48:00,55.5,52.9,30.17,ESE,117,0.0,0.0,91,0.00,,SKC,0.00,VWS V14.01,2013-01-29 02:48:00,
2013-01-28 20:53:00,55.3,52.7,30.17,ESE,117,0.0,0.0,91,0.00,,SKC,0.00,VWS V14.01,2013-01-29 02:53:00,
2013-01-28 20:58:00,55.1,52.5,30.17,ESE,117,0.0,0.0,91,0.00,,SKC,0.00,VWS V14.01,2013-01-29 02:58:00,
2013-01-28 21:04:00,54.9,52.3,30.17,ESE,117,0.0,0.0,91,0.00,,SKC,0.00,VWS V14.01,2013-01-29 03:04:00,
2013-01-28 21:09:00,54.8,52.5,30.17,ESE,117,0.0,0.0,92,0.00,,SKC,0.00,VWS V14.01,2013-01-29 03:09:00,
2013-01-28 21:14:00,54.7,52.4,30.17,ESE,117,0.0,0.0,92,0.00,,SKC,0.00,VWS V14.01,2013-01-29 03:14:00,
2013-01-28 21:19:00,54.5,51.9,30.17,ESE,117,0.0,0.0,91,0.00,,SKC,0.00,VWS V14.01,2013-01-29 03:19:00,
2013-01-28 21:24:00,54.4,52.1,30.17,ESE,117,0.0,0.0,92,0.00,,SKC,0.00,VWS V14.01,2013-01-29 03:24:00,
2013-01-28 21:29:00,54.2,51.9,30.17,ESE,117,0.0,0.0,92,0.00,,SKC,0.00,VWS V14.01,2013-01-29 03:29:00,
2013-01-28 21:34:00,54.1,51.8,30.17,ESE,117,0.0,0.0,92,0.00,,SKC,0.00,VWS V14.01,2013-01-29 03:34:00,
2013-01-28 21:39:00,54.0,51.7,30.16,ESE,117,0.0,0.0,92,0.00,,SKC,0.00,VWS V14.01,2013-01-29 03:39:00,
2013-01-28 21:45:00,53.9,51.6,30.16,ESE,117,0.0,0.0,92,0.00,,SKC,0.00,VWS V14.01,2013-01-29 03:45:00,
2013-01-28 21:50:00,53.7,51.4,30.16,ESE,117,0.0,0.0,92,0.00,,SKC,0.00,VWS V14.01,2013-01-29 03:50:00,
2013-01-28 21:55:00,53.7,51.7,30.16,ESE,117,0.0,0.0,93,0.00,,SKC,0.00,VWS V14.01,2013-01-29 03:55:00,
2013-01-28 22:00:00,53.6,51.6,30.16,ESE,117,0.0,0.0,93,0.00,,SKC,0.00,VWS V14.01,2013-01-29 04:00:00,
2013-01-28 22:05:00,53.5,51.5,30.16,ESE,117,0.0,0.0,93,0.00,,SKC,0.00,VWS V14.01,2013-01-29 04:05:00,
2013-01-28 22:10:00,53.5,51.5,30.16,ESE,117,0.0,0.0,93,0.00,,SKC,0.00,VWS V14.01,2013-01-29 04:10:00,
2013-01-28 22:15:00,53.4,51.4,30.16,ESE,117,0.0,0.0,93,0.00,,SKC,0.00,VWS V14.01,2013-01-29 04:15:00,
2013-01-28 22:20:00,53.3,51.3,30.16,ESE,117,0.0,0.0,93,0.00,,SKC,0.00,VWS V14.01,2013-01-29 04:20:00,
2013-01-28 22:25:00,53.3,51.3,30.16,ESE,117,0.0,0.0,93,0.00,,SKC,0.00,VWS V14.01,2013-01-29 04:25:00,
2013-01-28 22:30:00,53.4,51.4,30.16,ESE,117,0.0,0.0,93,0.00,,SKC,0.00,VWS V14.01,2013-01-29 04:30:00,
2013-01-28 22:35:00,53.5,51.8,30.16,ESE,117,0.0,0.0,94,0.00,,SKC,0.00,VWS V14.01,2013-01-29 04:35:00,
2013-01-28 22:40:00,53.7,51.7,30.16,ESE,117,0.0,0.0,93,0.00,,SKC,0.00,VWS V14.01,2013-01-29 04:40:00,
2013-01-28 22:45:00,53.8,51.8,30.16,ESE,117,0.0,0.0,93,0.00,,SKC,0.00,VWS V14.01,2013-01-29 04:45:00,
2013-01-28 22:50:00,53.9,51.9,30.16,ESE,117,0.0,0.0,93,0.00,,SKC,0.00,VWS V14.01,2013-01-29 04:50:00,
2013-01-28 22:55:00,53.9,51.9,30.16,ESE,117,0.0,0.0,93,0.00,,SKC,0.00,VWS V14.01,2013-01-29 04:55:00,
2013-01-28 23:00:00,54.1,52.1,30.16,ESE,117,0.0,0.0,93,0.00,,SKC,0.00,VWS V14.01,2013-01-29 05:00:00,
2013-01-28 23:01:00,54.1,52.1,30.15,ESE,117,0.0,0.0,93,0.00,,SKC,0.00,VWS V14.01,2013-01-29 05:01:00,
2013-01-28 23:02:00,54.1,52.1,30.15,ESE,117,0.0,0.0,93,0.00,,SKC,0.00,VWS V14.01,2013-01-29 05:02:00,
2013-01-28 23:03:00,54.1,52.1,30.15,ESE,117,0.0,0.0,93,0.00,,SKC,0.00,VWS V14.01,2013-01-29 05:03:00,
2013-01-28 23:08:00,54.2,52.2,30.15,ESE,116,1.0,3.0,93,0.00,,SKC,0.00,VWS V14.01,2013-01-29 05:08:00,
2013-01-28 23:13:00,54.3,52.0,30.15,ESE,116,0.0,0.0,92,0.00,,SKC,0.00,VWS V14.01,2013-01-29 05:13:00,
2013-01-28 23:18:00,54.3,52.3,30.15,ESE,116,0.0,0.0,93,0.00,,SKC,0.00,VWS V14.01,2013-01-29 05:18:00,
2013-01-28 23:23:00,54.2,51.9,30.15,ESE,115,0.0,0.0,92,0.00,,SKC,0.00,VWS V14.01,2013-01-29 05:23:00,
2013-01-28 23:28:00,54.0,51.7,30.15,ESE,116,0.0,0.0,92,0.00,,SKC,0.00,VWS V14.01,2013-01-29 05:28:00,
2013-01-28 23:33:00,53.9,51.6,30.15,ESE,116,0.0,0.0,92,0.00,,SKC,0.00,VWS V14.01,2013-01-29 05:33:00,
2013-01-28 23:38:00,53.9,51.6,30.15,ESE,116,0.0,0.0,92,0.00,,SKC,0.00,VWS V14.01,2013-01-29 05:38:00,
2013-01-28 23:43:00,53.9,51.6,30.15,ESE,116,0.0,0.0,92,0.00,,SKC,0.00,VWS V14.01,2013-01-29 05:43:00,
2013-01-28 23:48:00,53.9,51.6,30.15,ESE,115,0.0,0.0,92,0.00,,SKC,0.00,VWS V14.01,2013-01-29 05:48:00,
2013-01-28 23:53:00,53.9,51.6,30.15,ESE,116,2.0,2.0,92,0.00,,SKC,0.00,VWS V14.01,2013-01-29 05:53:00,
2013-01-28 23:59:00,54.1,51.8,30.15,ESE,116,0.0,0.0,92,0.00,,SKC,0.00,VWS V14.01,2013-01-29 05:59:00,